Estación de Petorca

Ultimos registro cada 15 minutos 23
Estación Fecha / Hora Temperatura Humedad Lluvia Velocidad Dirección Radiación Presion
23 Petorca 08-05-2026 05:30 5,1 95,9 0 0 288 0,6 987,4
22 Petorca 08-05-2026 05:15 5,7 96 0 0 35 0,6 987
21 Petorca 08-05-2026 05:00 5,4 96,1 0 0 20 0,6 987
20 Petorca 08-05-2026 04:45 5,6 96,1 0 0 28 0,6 987,4
19 Petorca 08-05-2026 04:30 5,3 95,8 0 0 11 0,6 987,4
18 Petorca 08-05-2026 04:15 6 95,8 0 0 4 0,6 987,5
17 Petorca 08-05-2026 04:00 6,1 95,6 0 0 11 0,6 987,4
16 Petorca 08-05-2026 03:45 6,4 95,7 0 0 25 0,6 987,4
15 Petorca 08-05-2026 03:30 6,2 95,6 0 0 22 0,6 987,9
14 Petorca 08-05-2026 03:15 6,3 95,4 0 0 28 0,6 987,9
13 Petorca 08-05-2026 03:00 6,3 95,3 0 0 27 0,6 987,9
12 Petorca 08-05-2026 02:45 6,6 94,8 0 0 28 0,6 988
11 Petorca 08-05-2026 02:30 7 94,7 0 0 312 0,6 988,2
10 Petorca 08-05-2026 02:15 7,6 94,2 0 0 31 0,6 988,4
9 Petorca 08-05-2026 02:00 7,7 94 0 0 32 0,6 988,2
8 Petorca 08-05-2026 01:45 8,3 94,1 0 0 41 0,6 988,5
7 Petorca 08-05-2026 01:30 8,2 93,9 0 0 0 0,6 988,6
6 Petorca 08-05-2026 01:15 8,2 94,3 0 0 338 0,6 988,7
5 Petorca 08-05-2026 01:00 8,3 94,1 0 0 35 0,6 988,7
4 Petorca 08-05-2026 00:45 8,2 93,1 0 0 24 0,6 989
3 Petorca 08-05-2026 00:30 8,7 92,2 0 0 3 0,6 989,4
2 Petorca 08-05-2026 00:15 9,4 91,7 0 0 11 0,6 989,4
1 Petorca 08-05-2026 00:00 10 89,5 0 0 111 0,6 989,7